SMOS

Last updated on Sat Apr 13 2024 01:02:24 GMT+0100 (British Summer Time)

1 36036U 09059A 24103.52727485 .00000451 00000+0 15779-3 0 9992 2 36036 98.4440 291.4265 0001216 87.1364 272.9963 14.39740216758967
UTC large
Height (km)
Speed (km/s)
/
Latitude / Longitude
Inclination (degrees)
Orbital Period (minutes)
Azimuth
Elevation
Range (km)
Doppler Factor

Next 0 passes for location: London (51.5072 / 0.1276)

Sorry there are no passes over London.